Regional Weather Roundup
Issued by NWS

Home | Current Version | Previous Version | Text Only | Print | Product List | Glossary Off
Versions: 1 2 3 4 5 6 7 8 9 10 11 12 13 14 15 16 17 18 19 20 21 22 23 24 25 26 27 28 29 30 31 32 33 34 35 36 37 38 39 40 41 42 43 44 45 46 47 48 49 50

000
ASUS45 KBOU 140507
RWRCO

WEATHER ROUNDUP FOR COLORADO
NATIONAL WEATHER SERVICE DENVER/BOULDER CO
1100 PM MDT SAT SEP 13 2014

NOTE: "FAIR" INDICATES FEW OR NO CLOUDS BELOW 12000 FEET WITH NO
SIGNIFICANT WEATHER AND/OR OBSTRUCTIONS TO VISIBILITY.

COZ001>005-013-030-031-140600-
...NORTHWEST COLORADO...

CITY           SKY/WX    TMP DP  RH WIND       PRES   REMARKS
CRAIG          PTCLDY    50  42  74 CALM      30.17R
HAYDEN         CLOUDY    55  32  41 E7        30.18S
MEEKER         CLEAR     49  37  63 E7        30.19S
MOUNT WERNER   NOT AVBL
STEAMBOAT SPGS MOCLDY    52  33  49 CALM      30.21S
WALDEN         PTCLDY    37  32  81 SE8       30.28S
$$

COZ006>008-011-140600-
...WEST CENTRAL VALLEYS...

CITY           SKY/WX    TMP DP  RH WIND       PRES   REMARKS
GRAND JUNCTION PTCLDY    61  37  41 E7        30.08S
MONTROSE       CLEAR     59  38  45 SE10      30.18S
EAGLE          CLEAR     52  37  58 E3        30.25R
RIFLE          CLEAR     54  37  52 CALM      30.16R
DELTA          CLEAR     64  35  34 NE5       30.15R
NUCLA          CLEAR     61  34  36 E10       30.22R
$$

COZ017>023-064>068-140600-
...SOUTHWEST COLORADO...

CITY           SKY/WX    TMP DP  RH WIND       PRES   REMARKS
DURANGO        CLEAR     54  34  46 N7        30.24R
CORTEZ         CLEAR     53  39  59 NE6       30.19R
PAGOSA SPRINGS NOT AVBL
TELLURIDE      CLEAR     50  32  50 E6        30.41R
WOLF CREEK PAS CLEAR     43  30  61 SW9       30.59S
$$

COZ009-010-012-014-032>034-037-058>063-140600-
...CENTRAL COLORADO...

CITY           SKY/WX    TMP DP  RH WIND       PRES   REMARKS
ASPEN          CLEAR     48  31  51 S6        30.31S
BUENA VISTA    CLEAR     50  26  40 SW5       30.33R
COPPER MTN     CLEAR     45  14  29 SW8       30.57R
BERTHOUD PASS  FAIR      37  36  93 W18G28    30.58S
COTTONWOOD PAS CLEAR     55  21  26 W6        30.44R
GUNNISON       CLEAR     48  30  49 N3        30.34R
KREMMLING      CLEAR     46  30  53 CALM      30.29R
LEADVILLE      CLEAR     39  21  48 NE5       30.43R
MONARCH PASS   CLEAR     43  21  42 W14       30.67S
SALIDA         CLEAR     59  30  33 SE9       30.37S
SUNLIGHT       CLEAR     46  21  36 CALM      30.50S
WILKERSON PASS NOT AVBL
$$

COZ069>075-140600-
...SAN LUIS VALLEY/SANGRE DE CRISTO MOUNTAINS...

CITY           SKY/WX    TMP DP  RH WIND       PRES   REMARKS
ALAMOSA        PTCLDY    54  37  52 W6        30.29R
LA VETA PASS   NOT AVBL
SAGUACHE       NOT AVBL
$$

COZ035-036-038>040-140600-
...NORTHERN COLORADO FRONT RANGE...

CITY           SKY/WX    TMP DP  RH WIND       PRES   REMARKS
DENVER INTL AP CLEAR     53  43  68 SW13      30.16S
DMNS CITY PARK   N/A     55  40  57 W2        30.17S
AURORA         CLEAR     51  42  72 SW8       30.20R
FRONT RANGE AP CLEAR     54  45  71 S9        30.18S
ERIE MUNI ARPT CLEAR     53  43  69 CALM      30.17S
BOULDER MUN AP CLEAR     55  43  62 W5        30.17F
CENTENNIAL     CLEAR     52  41  66 SW5       30.20R
BROOMFIELD     NOT AVBL
FORT COLLINS   CLEAR     55  43  62 CALM      30.18F
LONGMONT       CLEAR     52  44  75 NW7       30.18F
$$

COZ041-046-047-076>085-087-088-140600-
...PIKES PEAK/PALMER DIVIDE AND SOUTHERN FOOTHILLS...

CITY           SKY/WX    TMP DP  RH WIND       PRES   REMARKS
COLO. SPRINGS  CLEAR     52  37  56 E8        30.24S
A. F. ACADEMY  CLEAR     49  38  66 N7        30.26R
ELLICOTT       NOT AVBL
FALCON         CLEAR     47  37  67 CALM      30.28S
FORT CARSON    CLEAR     53  38  56 N3        30.22S
LIMON          CLEAR     46  43  89 CALM      30.20S
MONUMENT HILL  CLEAR     46  36  66 W10       30.27R
TRINIDAD       CLEAR     66  51  58 W18       30.18R
$$

COZ042>045-048>051-090-091-140600-
...NORTHEAST COLORADO...

CITY           SKY/WX    TMP DP  RH WIND       PRES   REMARKS
GREELEY ARPT   CLEAR     48  37  66 NW8       30.15F
AKRON          CLEAR     53  47  79 SE13      30.17S
BURLINGTON     CLEAR     51  48  89 S8        30.18R
WRAY           CLEAR     49  46  90 E7        30.16S
STERLING       CLEAR     52  48  87 CALM      30.15R
HOLYOKE        CLEAR     46  45  93 E7        30.17R
FORT MORGAN    CLEAR     52  45  77 S6        30.16F
$$

COZ086-089-092>099-140600-
...SOUTHEAST COLORADO...

CITY           SKY/WX    TMP DP  RH WIND       PRES   REMARKS
PUEBLO         CLEAR     57  41  55 VRB6      30.15S
LA JUNTA       CLEAR     60  53  77 E8        30.10R
LAMAR          CLEAR     56  53  90 E10       30.12R
SPRINGFIELD      N/A     55  53  93 S14       30.15S
$$


USA.gov is the U.S. government's official web portal to all federal, state and local government web resources and services.